San Angelo, TX

9:08 PM CST on November 23, 2017 (GMT -0600)
San Angelo Regional-Mathis

Weather History for KSJT - June, 2013

Change the Weather History Date:

Friday, June 7, 2013

  Actual Average Record
Temperature  
Mean Temperature 75 °F 79 °F  
Max Temperature 82 °F 91 °F 107 °F (1994)
Min Temperature 67 °F 68 °F 52 °F (1983)
Degree Days  
Heating Degree Days 0 0  
Month to date heating degree days 0 0  
Since 1 June heating degree days 0 0  
Since 1 July heating degree days 1919 2316  
Cooling Degree Days 10 14  
Month to date cooling degree days 124 96  
Year to date cooling degree days 720 556  
Since 1 June cooling degree days 124 96  
Growing Degree Days 24 (Base 50)    
Moisture  
Dew Point 62 °F    
Average Humidity 62    
Maximum Humidity 84    
Minimum Humidity 39    
Precipitation  
Precipitation 0.44 in 0.11 in 1.90 in (1913)
Month to date precipitation 0.44 0.75  
Year to date precipitation 6.82 8.77  
Sea Level Pressure  
Sea Level Pressure 29.97 in    
Wind  
Wind Speed 8 mph (ENE)    
Max Wind Speed 24 mph    
Max Gust Speed 32 mph    
Visibility 9 miles    
Events Rain , Thunderstorm    
T = Trace of Precipitation, MM = Missing Value Source: NWS Daily Summary

Daily Weather History Graph

Daily Weather History Graph

Search for Another Location

Airport or City:

Trip Planner

Search our weather history database for the weather conditions in past years. The results will help you decide how hot, cold, wet, or windy it might be!

Date:

Astronomy

Jun. 07, 2013 Rise Set
Actual Time 6:37 AM CDT 8:44 PM CDT
Civil Twilight 6:09 AM CDT 9:12 PM CDT
Nautical Twilight 5:35 AM CDT 9:46 PM CDT
Astronomical Twilight 4:59 AM CDT 10:23 PM CDT
Moon 5:56 AM CDT (6/7) 8:03 PM CDT (6/7)
Length of Visible Light 15h 03m
Length of Day
14h 07m
Waning Crescent, 1% of the Moon is Illuminated
Jun 7
Waning Crescent
Jun 8
New
Jun 16
First Quarter
Jun 23
Full
Jun 29
Last Quarter

Hourly Weather History & Observations

Time (CDT) Temp. Heat Index Dew Point Humidity Pressure Visibility Wind Dir Wind Speed Gust Speed Precip Events Conditions
12:51 AM 71.1 °F - 62.1 °F 73% 29.94 in 10.0 mi ENE 6.9 mph - N/A   Clear
1:51 AM 70.0 °F - 61.0 °F 73% 29.96 in 10.0 mi Calm Calm - N/A   Clear
2:51 AM 69.1 °F - 62.1 °F 78% 29.96 in 10.0 mi NE 4.6 mph - N/A   Scattered Clouds
3:51 AM 70.0 °F - 61.0 °F 73% 29.94 in 10.0 mi ENE 8.1 mph - N/A   Scattered Clouds
4:51 AM 69.1 °F - 62.1 °F 78% 29.92 in 10.0 mi ENE 9.2 mph - N/A   Partly Cloudy
5:39 AM 69.8 °F - 62.6 °F 78% 30.00 in 10.0 mi NE 9.2 mph - N/A Thunderstorm Thunderstorm
5:51 AM 70.0 °F - 62.1 °F 76% 29.94 in 10.0 mi NNE 11.5 mph - N/A Thunderstorm Thunderstorm
6:25 AM 69.8 °F - 64.4 °F 83% 30.07 in 7.0 mi NW 19.6 mph - 0.00 in Rain , Thunderstorm Light Thunderstorms and Rain
6:30 AM 66.2 °F - 64.4 °F 94% 30.06 in 2.5 mi North 18.4 mph - 0.05 in Rain , Thunderstorm Heavy Thunderstorms and Rain
6:33 AM 66.2 °F - 64.4 °F 94% 30.04 in 1.8 mi NNE 15.0 mph - 0.10 in Rain , Thunderstorm Heavy Thunderstorms and Rain
6:37 AM 66.2 °F - 64.4 °F 94% 30.03 in 1.5 mi NE 11.5 mph - 0.24 in Rain , Thunderstorm Heavy Thunderstorms and Rain
6:45 AM 66.2 °F - 64.4 °F 94% 30.01 in 3.0 mi ESE 13.8 mph - 0.34 in Rain Heavy Rain
6:51 AM 66.9 °F - 64.9 °F 93% 29.95 in 4.0 mi East 18.4 mph - 0.38 in Rain Rain
7:51 AM 66.9 °F - 64.0 °F 90% 29.97 in 10.0 mi ENE 6.9 mph - 0.06 in   Partly Cloudy
8:51 AM 69.1 °F - 64.9 °F 87% 30.03 in 10.0 mi NNW 3.5 mph - N/A   Scattered Clouds
9:29 AM 69.8 °F - 64.4 °F 83% 30.08 in 10.0 mi North 4.6 mph - N/A   Mostly Cloudy
9:37 AM 69.8 °F - 64.4 °F 83% 30.08 in 10.0 mi NNE 3.5 mph - N/A   Scattered Clouds
9:51 AM 69.1 °F - 64.0 °F 84% 30.02 in 10.0 mi NE 3.5 mph - N/A   Scattered Clouds
10:51 AM 70.0 °F - 64.0 °F 81% 30.02 in 10.0 mi Calm Calm - N/A   Scattered Clouds
11:51 AM 70.0 °F - 64.0 °F 81% 30.00 in 10.0 mi SSE 5.8 mph - N/A   Partly Cloudy
12:15 PM 71.6 °F - 64.4 °F 78% 30.05 in 10.0 mi East 4.6 mph - N/A   Mostly Cloudy
12:28 PM 71.6 °F - 64.4 °F 78% 30.03 in 10.0 mi Calm Calm - N/A   Scattered Clouds
12:51 PM 72.0 °F - 64.0 °F 76% 29.96 in 10.0 mi East 5.8 mph - N/A   Clear
1:51 PM 75.0 °F - 60.1 °F 60% 29.97 in 10.0 mi East 13.8 mph - N/A   Clear
2:51 PM 78.1 °F - 57.0 °F 48% 29.95 in 10.0 mi East 17.3 mph - N/A   Clear
3:51 PM 78.1 °F - 57.9 °F 50% 29.94 in 10.0 mi East 11.5 mph 18.4 mph N/A   Clear
4:51 PM 80.1 °F 80.6 °F 57.9 °F 47% 29.92 in 10.0 mi SE 10.4 mph - N/A   Clear
5:51 PM 81.0 °F 80.5 °F 54.0 °F 39% 29.88 in 10.0 mi SSE 10.4 mph - N/A   Clear
6:51 PM 81.0 °F 80.7 °F 55.0 °F 41% 29.86 in 10.0 mi SE 13.8 mph - N/A   Clear
7:51 PM 79.0 °F - 55.0 °F 44% 29.86 in 10.0 mi SE 9.2 mph - N/A   Clear
8:51 PM 75.0 °F - 57.0 °F 53% 29.87 in 10.0 mi SE 4.6 mph - N/A   Clear
9:51 PM 71.1 °F - 59.0 °F 66% 29.88 in 10.0 mi ESE 5.8 mph - N/A   Clear
10:51 PM 70.0 °F - 59.0 °F 68% 29.91 in 10.0 mi SE 4.6 mph - N/A   Clear
11:51 PM 66.9 °F - 60.1 °F 79% 29.92 in 10.0 mi South 3.5 mph - N/A   Clear